This is the latest recevied weather packets stored in our database for station/object N7CW. If no packets are shown the sender has not sent any weather packets the latest 10 day(s).
| Time | Temp. | Humidity | Pressure | Rain* | Wind** | Luminosity | Snow |
|---|---|---|---|---|---|---|---|
| 1777949433 | 11.11° C | 43% | 1013.9 hPa | 0 mm | - | 0 W/m² | - |
| 1777949130 | 11.67° C | 43% | 1014 hPa | 0 mm | - | 0 W/m² | - |
| 1777948827 | 11.67° C | 42% | 1014.1 hPa | 0 mm | - | 0 W/m² | - |
| 1777948524 | 11.67° C | 42% | 1013.9 hPa | 0 mm | - | 0 W/m² | - |
| 1777948222 | 11.67° C | 41% | 1013.9 hPa | 0 mm | - | 0 W/m² | - |
| 1777947919 | 11.67° C | 40% | 1013.8 hPa | 0 mm | - | 1 W/m² | - |
| 1777947616 | 11.67° C | 40% | 1014 hPa | 0 mm | - | 1 W/m² | - |
| 1777947312 | 11.67° C | 40% | 1013.8 hPa | 0 mm | - | 2 W/m² | - |
| 1777947009 | 11.67° C | 40% | 1014.1 hPa | 0 mm | - | 4 W/m² | - |
| 1777946709 | 12.22° C | 39% | 1013.9 hPa | 0 mm | - | 6 W/m² | - |
| 1777946406 | 12.22° C | 39% | 1013.9 hPa | 0 mm | - | 8 W/m² | - |
| 1777946103 | 12.22° C | 38% | 1013.9 hPa | 0 mm | - | 12 W/m² | - |
| 1777945800 | 12.22° C | 38% | 1014 hPa | 0 mm | - | 16 W/m² | - |
| 1777945497 | 12.78° C | 38% | 1013.6 hPa | 0 mm | - | 19 W/m² | - |
| 1777945194 | 12.78° C | 39% | 1014 hPa | 0 mm | - | 27 W/m² | - |
| 1777944891 | 12.78° C | 38% | 1014 hPa | 0 mm | - | 31 W/m² | - |
| 1777944588 | 12.78° C | 38% | 1014 hPa | 0 mm | - | 38 W/m² | - |
| 1777944287 | 12.78° C | 39% | 1013.9 hPa | 0 mm | - | 38 W/m² | - |
| 1777943983 | 13.33° C | 39% | 1014.1 hPa | 0 mm | - | 50 W/m² | - |
| 1777943679 | 13.33° C | 38% | 1013.9 hPa | 0 mm | - | 53 W/m² | - |
| 1777943376 | 13.33° C | 38% | 1013.8 hPa | 0 mm | - | 60 W/m² | - |
| 1777943072 | 13.33° C | 39% | 1014 hPa | 0 mm | - | 73 W/m² | - |
| 1777942768 | 13.33° C | 39% | 1013.8 hPa | 0 mm | - | 84 W/m² | - |
| 1777942465 | 13.89° C | 38% | 1013.9 hPa | 0 mm | - | 98 W/m² | - |
| 1777942163 | 13.89° C | 38% | 1013.6 hPa | 0 mm | - | 106 W/m² | - |
* Rain latest hour (hover to see other rain measurements)
** Current wind speed in m/s (hover to see current wind gust speed)